Location: Grodzisk Wielkopolski
(52.2262°N, 16.3624°E)
Time: 13:30:50
(UTC+01:00)

ISS - Pass Details

Date: 28 November 2017
Orbit: 403 x 407 km, 51.6° (Epoch: 12 December)

Event Time Altitude Azimuth Distance (km) Brightness Sun altitude
Rises 18:13:33 0° 211° (SSW) 2,321 0.6 -21.4°
Reaches altitude 10° 18:16:01 10° 192° (SSW) 1,463 -0.8 -21.8°
Enters shadow 18:16:44 14° 182° (S) 1,267 -1.2 -21.9°
